DW6345 Murcia ES current weather conditions

sailwx.info

Wind from 315

Air temperature 22.8° C
Dewpoint 19.5° C

Last reported at 2016-Aug-24 00:55 UTC.
Time now 2016-Aug-24 01:32 UTC

Location: N 37°60' W 001°06'.
View on Google Maps.

See reports from other nearby stations

  
Tides and Currents Weather Stations Pressure Air Temp Water Temp Dewpoint Dewpoint Depression Visibility Wind Speed Wind Dir Waves Ship Positions
date/time (UTC)wind fromknots sea level pressurealtimeterstation pressurevisibilityair tempwater tempwave heightnotes
2016-Aug-24 00:55 315 22.8
2016-Aug-24 00:50 270 22.8
2016-Aug-24 00:45 326 0 gusting 0 23.3
2016-Aug-24 00:40 180 23.3
2016-Aug-24 00:35 185 23.3
2016-Aug-24 00:30 135 23.3
2016-Aug-24 00:25 135 0 gusting 2 23.3
2016-Aug-24 00:20 138 0 gusting 0 23.3
2016-Aug-24 00:15 086 23.3
2016-Aug-24 00:10 045 23.3
2016-Aug-24 00:05 045 23.9
2016-Aug-24 00:00 045 23.9
2016-Aug-23 23:55 045 0 gusting 1 23.9
2016-Aug-23 23:50 045 23.9
2016-Aug-23 23:45 049 23.9
2016-Aug-23 23:40 045 0 gusting 1 23.9
2016-Aug-23 23:35 045 0 gusting 0 23.9
2016-Aug-23 23:30 045 23.9
2016-Aug-23 23:25 045 23.9
2016-Aug-23 23:20 045 23.9
2016-Aug-23 23:15 045 23.9
2016-Aug-23 23:10 045 23.9
2016-Aug-23 23:05 045 23.9
2016-Aug-23 23:00 045 23.9
2016-Aug-23 22:55 045 23.9
2016-Aug-23 22:50 045 23.9
2016-Aug-23 22:45 048 23.9
2016-Aug-23 22:40 090 23.9
2016-Aug-23 22:35 090 24.4
2016-Aug-23 22:30 040 24.4
2016-Aug-23 22:25 319 24.4
2016-Aug-23 22:20 090 24.4
2016-Aug-23 22:15 090 24.4
2016-Aug-23 22:10 315 0 gusting 1 24.4
2016-Aug-23 22:05 315 0 gusting 2 24.4
2016-Aug-23 22:00 275 0 gusting 2 24.4
2016-Aug-23 21:55 045 24.4
2016-Aug-23 21:50 093 24.4
2016-Aug-23 21:45 090 0 gusting 1 24.4
2016-Aug-23 21:40 088 0 gusting 2 24.4
2016-Aug-23 21:35 090 1 gusting 2 24.4
2016-Aug-23 21:30 142 0 gusting 1 24.4
2016-Aug-23 21:25 051 24.4
2016-Aug-23 21:20 045 24.4
2016-Aug-23 21:15 090 0 gusting 2 25.0
2016-Aug-23 21:10 052 0 gusting 2 24.4
2016-Aug-23 21:05 045 0 gusting 0 25.0
2016-Aug-23 21:00 087 0 gusting 2 25.0
2016-Aug-23 20:55 090 0 gusting 2 25.0
2016-Aug-23 20:50 270 0 gusting 4 25.0
2016-Aug-23 20:45 135 1 gusting 2 25.0
2016-Aug-23 20:40 045 1 gusting 4 25.0
2016-Aug-23 20:35 088 1 gusting 2 25.0
2016-Aug-23 20:30 045 1 gusting 4 25.0
2016-Aug-23 20:25 045 1 gusting 4 25.0
2016-Aug-23 20:20 051 1 gusting 4 25.0
2016-Aug-23 20:15 090 0 gusting 4 25.6
2016-Aug-23 20:10 090 1 gusting 5 25.6
2016-Aug-23 20:05 090 2 gusting 5 25.6
2016-Aug-23 20:00 090 2 gusting 6 25.6
2016-Aug-23 19:55 090 3 gusting 6 25.6
2016-Aug-23 19:50 090 3 gusting 6 25.6
2016-Aug-23 19:45 090 4 gusting 6 25.6
2016-Aug-23 19:40 090 2 gusting 6 25.6
2016-Aug-23 19:30 088 5 gusting 6 25.6
2016-Aug-23 19:25 094 5 gusting 6 26.1
2016-Aug-23 19:20 270 5 gusting 6 26.1
2016-Aug-23 19:15 096 2 gusting 6 26.1
2016-Aug-23 19:10 090 4 gusting 8 26.1
2016-Aug-23 19:05 129 6 gusting 10 26.1
2016-Aug-23 19:00 090 5 gusting 7 26.1
2016-Aug-23 18:55 090 5 gusting 8 26.7
2016-Aug-23 18:50 090 5 gusting 8 26.7
2016-Aug-23 18:45 090 4 gusting 8 26.7
2016-Aug-23 18:40 090 6 gusting 10 26.7
2016-Aug-23 18:35 135 4 gusting 10 26.7
2016-Aug-23 18:30 045 5 gusting 12 27.2
2016-Aug-23 18:25 090 7 gusting 12 27.2
2016-Aug-23 18:20 045 6 gusting 13 27.2
2016-Aug-23 18:15 090 8 gusting 13 27.2
2016-Aug-23 18:10 074 6 gusting 13 27.8
2016-Aug-23 18:00 090 6 gusting 13 27.8
2016-Aug-23 17:55 090 5 gusting 7 27.8
2016-Aug-23 17:50 090 5 gusting 11 28.3
2016-Aug-23 17:45 090 2 gusting 13 28.3
2016-Aug-23 17:40 086 8 gusting 13 28.3
2016-Aug-23 17:35 090 5 gusting 11 28.9
2016-Aug-23 17:30 135 5 gusting 11 28.9
2016-Aug-23 17:25 090 6 gusting 11 28.9
2016-Aug-23 17:20 090 6 gusting 13 28.9
2016-Aug-23 17:15 090 8 gusting 13 28.9
2016-Aug-23 17:10 090 5 gusting 6 28.9
2016-Aug-23 17:05 090 5 gusting 11 28.9
2016-Aug-23 17:00 135 6 gusting 11 29.4
2016-Aug-23 16:55 095 6 gusting 12 29.4
2016-Aug-23 16:50 090 6 gusting 13 29.4
2016-Aug-23 16:45 090 5 gusting 11 29.4
2016-Aug-23 16:40 090 7 gusting 14 29.4
2016-Aug-23 16:35 111 4 gusting 11 30.0
2016-Aug-23 16:30 086 5 gusting 10 30.0
2016-Aug-23 16:25 090 5 gusting 11 29.4
2016-Aug-23 16:20 090 6 gusting 11 29.4
2016-Aug-23 16:15 090 6 gusting 11 29.4
2016-Aug-23 16:10 008 6 gusting 13 29.4
2016-Aug-23 16:05 048 7 gusting 13 29.4
2016-Aug-23 16:00 048 6 gusting 13 29.4
2016-Aug-23 15:55 094 6 gusting 11 30.0
2016-Aug-23 15:50 048 6 gusting 14 30.0
2016-Aug-23 15:45 049 8 gusting 14 30.0
2016-Aug-23 15:40 135 7 gusting 13 30.0
2016-Aug-23 15:35 135 8 gusting 14 30.0
2016-Aug-23 15:30 090 6 gusting 14 30.6
2016-Aug-23 15:25 090 9 gusting 14 30.6
2016-Aug-23 15:20 090 6 gusting 11 30.6
2016-Aug-23 15:15 096 6 gusting 12 30.6
2016-Aug-23 15:10 135 6 gusting 12 30.6
2016-Aug-23 15:05 135 7 gusting 13 30.6
2016-Aug-23 15:00 095 6 gusting 13 30.6
2016-Aug-23 14:55 045 5 gusting 13 30.6
2016-Aug-23 14:50 090 6 gusting 14 30.6
2016-Aug-23 14:45 131 5 gusting 11 30.6
2016-Aug-23 14:40 180 4 gusting 11 30.6
2016-Aug-23 14:35 090 6 gusting 14 30.0
2016-Aug-23 14:20 118 7 gusting 13 30.6
2016-Aug-23 14:15 045 7 gusting 13 30.6
2016-Aug-23 14:10 090 8 gusting 14 30.6
2016-Aug-23 14:05 090 7 gusting 13 30.6
2016-Aug-23 14:00 087 6 gusting 14 30.6
2016-Aug-23 13:55 090 6 gusting 13 30.6
2016-Aug-23 13:50 131 8 gusting 14 31.1
2016-Aug-23 13:45 090 8 gusting 15 31.1
2016-Aug-23 13:40 090 6 gusting 13 31.1
2016-Aug-23 13:35 087 4 gusting 11 31.1
2016-Aug-23 13:30 135 6 gusting 12 31.1
2016-Aug-23 13:25 093 6 gusting 13 31.1
2016-Aug-23 13:20 090 2 gusting 15 31.1
2016-Aug-23 13:15 090 11 gusting 13 31.1
2016-Aug-23 13:10 090 11 gusting 13 31.1
2016-Aug-23 13:05 046 4 gusting 13 31.1
2016-Aug-23 13:00 180 1 gusting 8 31.1
2016-Aug-23 12:55 135 5 gusting 13 31.1
2016-Aug-23 12:50 090 5 gusting 8 30.6
2016-Aug-23 12:45 097 7 gusting 14 30.6
2016-Aug-23 12:40 090 6 gusting 8 30.6
2016-Aug-23 12:35 090 1 gusting 13 30.6
2016-Aug-23 12:30 131 5 gusting 12 30.6
2016-Aug-23 12:25 045 8 gusting 12 30.6
2016-Aug-23 12:20 090 6 gusting 11 30.6
2016-Aug-23 12:15 090 8 gusting 13 30.6
2016-Aug-23 12:10 090 7 gusting 11 30.6
2016-Aug-23 12:05 219 7 gusting 11 30.6
2016-Aug-23 12:00 090 9 gusting 17 30.6
2016-Aug-23 11:55 090 6 gusting 13 30.6
2016-Aug-23 11:50 090 6 gusting 11 30.6
2016-Aug-23 11:45 090 6 gusting 11 30.6
2016-Aug-23 11:40 049 4 gusting 8 30.6
2016-Aug-23 11:35 093 2 gusting 6 30.6
2016-Aug-23 11:30 048 2 gusting 10 30.6
2016-Aug-23 11:25 138 6 gusting 10 30.6
2016-Aug-23 11:20 045 4 gusting 10 30.0
2016-Aug-23 11:15 090 6 gusting 11 30.0
2016-Aug-23 11:10 052 4 gusting 11 30.0
2016-Aug-23 11:05 135 2 gusting 8 30.0
2016-Aug-23 11:00 090 4 gusting 8 30.0
2016-Aug-23 10:55 132 2 gusting 6 29.4
2016-Aug-23 10:50 112 3 gusting 8 29.4
2016-Aug-23 10:45 090 6 gusting 12 29.4
2016-Aug-23 10:40 270 3 gusting 10 29.4
2016-Aug-23 10:35 090 6 gusting 12 29.4
2016-Aug-23 10:30 045 3 gusting 8 29.4
2016-Aug-23 10:25 090 6 gusting 8 29.4
2016-Aug-23 10:20 180 1 gusting 5 29.4
2016-Aug-23 10:15 090 2 gusting 5 28.3
2016-Aug-23 10:10 090 1 gusting 6 28.3
2016-Aug-23 10:05 045 4 gusting 6 28.3
2016-Aug-23 10:00 094 5 gusting 6 28.3
2016-Aug-23 09:55 090 5 gusting 6 28.3
2016-Aug-23 09:50 045 4 gusting 6 28.3
2016-Aug-23 09:45 045 2 gusting 5 28.3
2016-Aug-23 09:40 131 1 gusting 6 27.8
2016-Aug-23 09:35 088 2 gusting 7 27.8
2016-Aug-23 09:30 090 4 gusting 6 27.8
2016-Aug-23 09:25 042 4 gusting 6 27.8
2016-Aug-23 09:20 274 2 gusting 8 27.8
2016-Aug-23 09:15 047 2 gusting 7 27.8
2016-Aug-23 09:10 090 0 gusting 5 28.3
2016-Aug-23 09:05 129 2 gusting 6 28.3
2016-Aug-23 09:00 090 1 gusting 4 27.8
2016-Aug-23 08:55 090 1 gusting 4 27.2
2016-Aug-23 08:50 315 0 gusting 1 27.2
2016-Aug-23 08:45 315 0 gusting 2 27.2
2016-Aug-23 08:40 045 26.7
2016-Aug-23 08:35 135 0 gusting 5 26.7
2016-Aug-23 08:30 270 1 gusting 5 26.1
2016-Aug-23 08:25 270 25.6
2016-Aug-23 08:20 045 0 gusting 5 25.6
2016-Aug-23 08:15 270 2 gusting 5 25.6
2016-Aug-23 08:10 180 0 gusting 2 25.6
2016-Aug-23 08:05 180 0 gusting 5 25.6
2016-Aug-23 08:00 191 1 gusting 4 25.0
2016-Aug-23 07:55 270 0 gusting 4 25.0
2016-Aug-23 07:50 248 2 gusting 5 25.0
2016-Aug-23 07:45 266 1 gusting 5 25.0
2016-Aug-23 07:40 270 1 gusting 5 25.0
2016-Aug-23 07:35 180 2 gusting 5 24.4
2016-Aug-23 07:30 248 0 gusting 1 24.4
2016-Aug-23 07:25 248 0 gusting 50 24.4
2016-Aug-23 07:20 270 50 gusting 50 23.9
2016-Aug-23 07:15 270 0 gusting 1 23.9
2016-Aug-23 07:10 270 33 gusting 50 23.9
2016-Aug-23 07:05 248 50 gusting 50 23.3
2016-Aug-23 07:00 248 23.3
2016-Aug-23 06:55 248 23.3
2016-Aug-23 06:50 315 0 gusting 2 23.3
2016-Aug-23 06:45 315 0 gusting 0 22.8
2016-Aug-23 06:40 315 33 gusting 50 22.8
2016-Aug-23 06:35 315 50 gusting 50 22.2
2016-Aug-23 06:30 315 50 gusting 50 22.2
2016-Aug-23 06:25 315 50 gusting 50 22.2
2016-Aug-23 06:20 315 50 gusting 50 22.2
2016-Aug-23 06:15 315 22.2
2016-Aug-23 06:10 315 22.2
2016-Aug-23 06:05 248 0 gusting 1 21.7
2016-Aug-23 06:00 248 21.7
2016-Aug-23 05:55 254 21.7
2016-Aug-23 05:50 273 21.7
2016-Aug-23 05:45 315 21.7
2016-Aug-23 05:40 315 21.7
2016-Aug-23 05:35 315 0 gusting 2 21.7
2016-Aug-23 05:30 315 0 gusting 2 21.7
2016-Aug-23 05:25 315 0 gusting 1 22.2
2016-Aug-23 05:20 270 22.2
2016-Aug-23 05:15 090 22.2
2016-Aug-23 05:10 312 22.2
2016-Aug-23 05:05 274 22.2
2016-Aug-23 05:00 270 0 gusting 5 22.2
2016-Aug-23 04:55 270 1 gusting 2 22.2
2016-Aug-23 04:50 270 0 gusting 2 22.2
2016-Aug-23 04:45 311 0 gusting 2 22.2
2016-Aug-23 04:40 251 1 gusting 2 22.2
2016-Aug-23 04:35 270 1 gusting 2 22.2
2016-Aug-23 04:30 270 0 gusting 4 22.2
2016-Aug-23 04:25 248 0 gusting 2 22.2
2016-Aug-23 04:20 270 0 gusting 2 22.2
2016-Aug-23 04:15 253 33 gusting 50 22.2
2016-Aug-23 04:10 248 50 gusting 50 22.8
2016-Aug-23 04:05 248 2 gusting 4 22.8
2016-Aug-23 04:00 248 2 gusting 5 22.8
2016-Aug-23 03:55 269 1 gusting 5 22.8
2016-Aug-23 03:50 270 1 gusting 2 22.8
2016-Aug-23 03:45 248 0 gusting 2 22.8
2016-Aug-23 03:40 270 1 gusting 2 22.8
2016-Aug-23 03:35 248 0 gusting 4 22.8
2016-Aug-23 03:30 270 0 gusting 1 22.8
2016-Aug-23 03:25 270 0 gusting 1 22.8
2016-Aug-23 03:20 270 0 gusting 2 22.8
2016-Aug-23 03:15 268 0 gusting 2 22.8
2016-Aug-23 03:10 195 0 gusting 1 22.8
2016-Aug-23 03:05 248 22.8
2016-Aug-23 03:00 270 0 gusting 4 22.8
2016-Aug-23 02:55 270 1 gusting 4 23.3
2016-Aug-23 02:50 270 0 gusting 2 22.8
2016-Aug-23 02:45 270 0 gusting 2 23.3
2016-Aug-23 02:40 270 1 gusting 2 23.3
2016-Aug-23 02:35 270 0 gusting 2 23.3
2016-Aug-23 02:30 272 0 gusting 4 23.3
2016-Aug-23 02:25 270 2 gusting 4 23.3
2016-Aug-23 02:20 250 0 gusting 2 23.3
2016-Aug-23 02:15 270 0 gusting 1 22.8
2016-Aug-23 02:10 285 1 gusting 4 22.8
2016-Aug-23 02:05 248 1 gusting 4 22.8
2016-Aug-23 02:00 248 2 gusting 4 22.8
2016-Aug-23 01:55 248 1 gusting 2 22.8
2016-Aug-23 01:50 180 22.8
2016-Aug-23 01:45 178 0 gusting 2 22.8
2016-Aug-23 01:40 141 0 gusting 1 22.8
2016-Aug-23 01:35 135 0 gusting 0 22.8
2016-Aug-23 01:30 180 0 gusting 0 22.8
2016-Aug-23 01:25 245 0 gusting 0 22.8
2016-Aug-23 01:20 180 22.8
2016-Aug-23 01:15 180 22.8
2016-Aug-23 01:10 180 22.8
2016-Aug-23 01:05 135 0 gusting 1 22.8
2016-Aug-23 01:00 139 0 gusting 0 22.8
2016-Aug-23 00:55 180 0 gusting 1 22.8
2016-Aug-23 00:50 248 0 gusting 2 22.8
2016-Aug-23 00:45 180 1 gusting 2 23.3
2016-Aug-23 00:40 180 0 gusting 2 23.3
2016-Aug-23 00:35 138 0 gusting 0 23.3
2016-Aug-23 00:30 135 0 gusting 1 23.3
2016-Aug-23 00:25 048 23.3
2016-Aug-23 00:20 090 23.3
2016-Aug-23 00:15 090 23.9
2016-Aug-23 00:10 045 0 gusting 2 23.9
2016-Aug-23 00:05 045 0 gusting 1 23.3
2016-Aug-23 00:00 045 23.9
2016-Aug-22 23:55 093 23.9
2016-Aug-22 23:50 135 0 gusting 1 23.9
2016-Aug-22 23:45 243 23.9
2016-Aug-22 23:40 090 23.9
2016-Aug-22 23:35 090 0 gusting 1 23.9
2016-Aug-22 23:30 048 23.9
2016-Aug-22 23:25 090 33 gusting 50 23.9
2016-Aug-22 23:20 045 23.9
2016-Aug-22 23:15 045 23.9
2016-Aug-22 23:10 315 17 gusting 50 23.9
2016-Aug-22 23:05 315 0 gusting 1 23.9
2016-Aug-22 23:00 045 0 gusting 1 23.9
2016-Aug-22 22:55 045 24.4
2016-Aug-22 22:40 045 24.4
2016-Aug-22 22:35 090 24.4
2016-Aug-22 22:30 086 0 gusting 1 24.4
2016-Aug-22 22:25 084 0 gusting 1 24.4
2016-Aug-22 22:15 090 0 gusting 50 24.4
2016-Aug-22 22:05 090 0 gusting 2 24.4
2016-Aug-22 22:00 090 0 gusting 2 24.4
2016-Aug-22 21:55 051 1 gusting 4 24.4
2016-Aug-22 21:50 090 1 gusting 2 24.4
2016-Aug-22 21:45 048 1 gusting 2 24.4
2016-Aug-22 21:40 093 1 gusting 2 24.4
2016-Aug-22 21:35 090 1 gusting 4 24.4
2016-Aug-22 21:25 090 50 gusting 50 25.0
2016-Aug-22 21:20 090 42 gusting 50 25.0
2016-Aug-22 21:15 090 2 gusting 4 25.0
2016-Aug-22 21:10 090 11 gusting 50 25.0
2016-Aug-22 21:05 045 1 gusting 4 25.0
2016-Aug-22 21:00 045 1 gusting 5 25.0
2016-Aug-22 20:55 094 2 gusting 5 25.0
2016-Aug-22 20:50 090 34 gusting 50 25.0
2016-Aug-22 20:45 090 42 gusting 50 25.6
2016-Aug-22 20:40 090 2 gusting 5 25.6
2016-Aug-22 20:35 090 3 gusting 5 25.6
2016-Aug-22 20:30 090 4 gusting 50 25.6
2016-Aug-22 20:25 090 50 gusting 50 25.6
2016-Aug-22 20:20 090 50 gusting 50 25.6
2016-Aug-22 20:15 090 5 gusting 6 25.6
2016-Aug-22 20:10 090 5 gusting 6 25.6
2016-Aug-22 20:05 048 4 gusting 6 25.6
2016-Aug-22 20:00 050 4 gusting 6 25.6
2016-Aug-22 19:55 090 4 gusting 6 25.6
2016-Aug-22 19:50 090 5 gusting 6 25.6
2016-Aug-22 19:45 090 2 gusting 6 26.1
2016-Aug-22 19:40 093 4 gusting 6 26.1
2016-Aug-22 19:35 092 2 gusting 7 26.1
2016-Aug-22 19:30 090 4 gusting 6 26.1
2016-Aug-22 19:25 048 5 gusting 6 26.1
2016-Aug-22 19:20 087 1 gusting 6 26.1
2016-Aug-22 19:15 135 4 gusting 6 26.1
2016-Aug-22 19:10 090 5 gusting 6 26.7
2016-Aug-22 19:05 112 2 gusting 5 26.7
2016-Aug-22 19:00 090 4 gusting 6 26.7
2016-Aug-22 18:55 093 3 gusting 6 26.7
2016-Aug-22 18:50 090 3 gusting 10 26.7
2016-Aug-22 18:45 050 3 gusting 6 26.7
2016-Aug-22 18:40 051 4 gusting 10 27.2
2016-Aug-22 18:35 050 5 gusting 11 27.2
2016-Aug-22 18:30 090 6 gusting 12 27.2
2016-Aug-22 18:25 048 6 gusting 12 27.8
2016-Aug-22 18:20 049 8 gusting 13 27.8
2016-Aug-22 18:15 320 5 gusting 13 27.8
2016-Aug-22 18:10 090 6 gusting 12 27.8
2016-Aug-22 18:05 132 6 gusting 12 27.8
2016-Aug-22 18:00 090 6 gusting 13 28.3
2016-Aug-22 17:55 090 6 gusting 13 28.3
2016-Aug-22 17:50 093 6 gusting 13 28.3
2016-Aug-22 17:45 050 6 gusting 13 28.3
2016-Aug-22 17:40 090 7 gusting 13 28.9
2016-Aug-22 17:35 090 6 gusting 14 28.9
2016-Aug-22 17:30 092 6 gusting 13 28.9
2016-Aug-22 17:25 090 10 gusting 14 28.9
2016-Aug-22 17:20 135 6 gusting 13 29.4
2016-Aug-22 17:15 090 8 gusting 13 29.4
2016-Aug-22 17:10 131 6 gusting 14 29.4
2016-Aug-22 17:05 090 6 gusting 13 30.0
2016-Aug-22 17:00 090 7 gusting 13 30.0
2016-Aug-22 16:55 052 8 gusting 13 30.0
2016-Aug-22 16:50 090 5 gusting 11 30.6
2016-Aug-22 16:45 130 5 gusting 11 30.6
2016-Aug-22 16:40 131 7 gusting 11 30.6
2016-Aug-22 16:35 090 6 gusting 12 30.6
2016-Aug-22 16:30 270 5 gusting 12 30.6
2016-Aug-22 16:25 090 5 gusting 13 30.6
2016-Aug-22 16:20 090 6 gusting 13 30.6
2016-Aug-22 16:15 093 7 gusting 17 30.6
2016-Aug-22 16:10 135 5 gusting 12 30.6
2016-Aug-22 16:05 135 5 gusting 11 30.6
2016-Aug-22 16:00 130 6 gusting 12 30.6
2016-Aug-22 15:55 090 6 gusting 12 30.6
2016-Aug-22 15:50 090 6 gusting 11 30.6
2016-Aug-22 15:45 090 6 gusting 13 30.6
2016-Aug-22 15:40 090 6 gusting 13 30.6
2016-Aug-22 15:35 090 7 gusting 13 31.1
2016-Aug-22 15:30 090 8 gusting 13 31.1
2016-Aug-22 15:25 049 6 gusting 13 30.6
2016-Aug-22 15:20 090 7 gusting 12 30.6
2016-Aug-22 14:40 090 9 gusting 14 30.6
2016-Aug-22 14:35 090 6 gusting 11 30.6
2016-Aug-22 14:30 050 7 gusting 13 30.6
2016-Aug-22 14:25 130 6 gusting 13 30.6
2016-Aug-22 14:20 090 7 gusting 14 30.6
2016-Aug-22 14:15 091 8 gusting 14 30.6
2016-Aug-22 14:10 051 6 gusting 13 30.6
2016-Aug-22 14:05 087 6 gusting 13 30.6
2016-Aug-22 14:00 085 6 gusting 12 30.6
2016-Aug-22 13:55 045 6 gusting 13 30.6
2016-Aug-22 13:50 086 6 gusting 13 30.6
2016-Aug-22 13:45 170 9 gusting 17 30.6
2016-Aug-22 13:40 045 10 gusting 17 31.1
2016-Aug-22 13:35 086 6 gusting 10 31.1
2016-Aug-22 13:30 095 6 gusting 13 31.1
2016-Aug-22 13:25 090 6 gusting 12 31.1
2016-Aug-22 13:20 090 7 gusting 14 31.1
2016-Aug-22 13:15 093 4 gusting 12 30.6
2016-Aug-22 13:10 131 6 gusting 12 30.6
2016-Aug-22 13:05 045 6 gusting 13 30.6
2016-Aug-22 13:00 090 5 gusting 11 30.6
2016-Aug-22 12:55 090 5 gusting 12 30.6
2016-Aug-22 12:50 094 4 gusting 13 30.6
2016-Aug-22 12:45 088 4 gusting 11 30.6
2016-Aug-22 12:40 151 7 gusting 13 30.6
2016-Aug-22 12:35 090 6 gusting 13 30.6
2016-Aug-22 12:30 132 2 gusting 7 30.6
2016-Aug-22 12:25 084 5 gusting 11 30.6
2016-Aug-22 12:20 311 2 gusting 6 30.6
2016-Aug-22 12:15 128 5 gusting 11 30.6
2016-Aug-22 12:10 049 5 gusting 11 30.6
2016-Aug-22 12:05 223 5 gusting 11 30.6
2016-Aug-22 12:00 090 6 gusting 12 30.6
2016-Aug-22 11:55 088 6 gusting 11 30.6
2016-Aug-22 11:50 270 4 gusting 11 30.6
2016-Aug-22 11:45 090 2 gusting 6 31.1
2016-Aug-22 11:40 091 1 gusting 6 30.6
2016-Aug-22 11:35 131 3 gusting 6 30.6
2016-Aug-22 11:30 173 1 gusting 7 30.6
2016-Aug-22 11:25 165 3 gusting 10 30.6
2016-Aug-22 11:20 045 4 gusting 10 30.0
2016-Aug-22 11:15 051 1 gusting 6 30.0
2016-Aug-22 11:10 049 3 gusting 6 30.0
2016-Aug-22 11:05 050 3 gusting 7 30.0
2016-Aug-22 11:00 090 4 gusting 7 29.4
2016-Aug-22 10:55 177 1 gusting 7 29.4
2016-Aug-22 10:50 088 1 gusting 6 29.4
2016-Aug-22 10:45 084 4 gusting 10 28.9
2016-Aug-22 10:40 090 2 gusting 8 28.9
2016-Aug-22 10:35 048 5 gusting 8 28.9
2016-Aug-22 10:30 087 2 gusting 5 28.9
2016-Aug-22 10:25 090 2 gusting 6 28.9
2016-Aug-22 10:20 095 5 gusting 10 28.3
2016-Aug-22 10:15 090 4 gusting 7 28.3
2016-Aug-22 10:10 090 2 gusting 8 28.3
2016-Aug-22 10:05 045 4 gusting 8 28.9
2016-Aug-22 10:00 141 2 gusting 6 28.3
2016-Aug-22 09:55 090 5 gusting 8 28.3
2016-Aug-22 09:50 137 4 gusting 8 28.3
2016-Aug-22 09:45 132 5 gusting 10 28.3
2016-Aug-22 09:40 088 4 gusting 10 28.3
2016-Aug-22 09:35 090 1 gusting 6 28.3
2016-Aug-22 09:30 090 3 gusting 7 28.3
2016-Aug-22 09:25 096 4 gusting 7 28.3
2016-Aug-22 09:20 131 2 gusting 6 28.3
2016-Aug-22 09:15 090 2 gusting 6 28.3
2016-Aug-22 09:10 073 2 gusting 5 28.3
2016-Aug-22 09:05 062 1 gusting 6 28.3
2016-Aug-22 09:00 084 1 gusting 6 28.3
2016-Aug-22 08:55 092 2 gusting 6 27.8
2016-Aug-22 08:50 094 0 gusting 5 27.8
2016-Aug-22 08:45 045 2 gusting 6 27.8
2016-Aug-22 08:40 283 2 gusting 5 27.8
2016-Aug-22 08:35 174 0 gusting 4 27.2
2016-Aug-22 08:30 135 1 gusting 6 27.2
2016-Aug-22 08:25 090 4 gusting 6 27.2
2016-Aug-22 08:20 090 0 gusting 2 26.7
2016-Aug-22 08:15 045 0 gusting 2 26.7
2016-Aug-22 08:10 335 2 gusting 5 26.7
2016-Aug-22 08:05 048 2 gusting 5 26.7
2016-Aug-22 08:00 096 26.7
2016-Aug-22 07:55 045 0 gusting 2 26.7
2016-Aug-22 07:50 292 0 gusting 2 26.7
2016-Aug-22 07:45 315 0 gusting 2 26.7
2016-Aug-22 07:40 048 0 gusting 4 26.7
2016-Aug-22 07:35 045 26.7
2016-Aug-22 07:30 315 26.7
2016-Aug-22 07:25 090 0 gusting 2 26.7
2016-Aug-22 07:20 047 0 gusting 2 26.1
2016-Aug-22 07:15 131 0 gusting 1 26.1
2016-Aug-22 07:10 045 26.1
2016-Aug-22 07:05 048 25.6
2016-Aug-22 07:00 054 0 gusting 1 25.6
2016-Aug-22 06:55 149 0 gusting 1 25.6
2016-Aug-22 06:50 051 0 gusting 2 25.0
2016-Aug-22 06:45 054 0 gusting 2 25.0
2016-Aug-22 06:40 047 0 gusting 2 25.0
2016-Aug-22 06:35 274 24.4
2016-Aug-22 06:30 045 24.4
2016-Aug-22 06:25 045 23.9
2016-Aug-22 06:20 045 23.9
2016-Aug-22 06:15 045 23.3
2016-Aug-22 06:10 096 23.3
2016-Aug-22 06:05 180 23.3
2016-Aug-22 06:00 248 22.8
2016-Aug-22 05:55 180 22.8
2016-Aug-22 05:50 132 22.8
2016-Aug-22 05:45 090 22.8
2016-Aug-22 05:40 086 22.8
2016-Aug-22 05:35 045 22.8
2016-Aug-22 05:30 090 22.8
2016-Aug-22 05:25 180 22.8
2016-Aug-22 05:20 182 0 gusting 1 22.8
2016-Aug-22 05:15 045 22.8
2016-Aug-22 05:10 045 22.8
2016-Aug-22 05:05 315 22.8
2016-Aug-22 05:00 315 22.8
2016-Aug-22 04:55 315 0 gusting 1 22.8
2016-Aug-22 04:50 315 22.8
2016-Aug-22 04:45 270 22.8
2016-Aug-22 04:40 274 22.8
2016-Aug-22 04:35 045 22.8
2016-Aug-22 04:30 321 22.8
2016-Aug-22 04:25 315 22.8
2016-Aug-22 04:20 315 0 gusting 1 22.8
2016-Aug-22 04:15 315 0 gusting 0 22.8
2016-Aug-22 04:10 315 0 gusting 1 22.8
2016-Aug-22 04:05 315 0 gusting 1 22.8
2016-Aug-22 04:00 045 0 gusting 2 22.8
2016-Aug-22 03:55 090 0 gusting 0 23.3
2016-Aug-22 03:50 045 22.8
2016-Aug-22 03:45 045 23.3
2016-Aug-22 03:40 315 0 gusting 1 23.3
2016-Aug-22 03:35 315 23.3
2016-Aug-22 03:30 090 0 gusting 0 23.3
2016-Aug-22 03:25 086 23.3
2016-Aug-22 03:20 034 0 gusting 1 23.3
2016-Aug-22 03:15 045 23.3
2016-Aug-22 03:10 048 23.3
2016-Aug-22 03:05 090 23.3
2016-Aug-22 03:00 045 23.3
2016-Aug-22 02:55 090 0 gusting 1 23.3
2016-Aug-22 02:50 086 0 gusting 1 23.3
2016-Aug-22 02:45 045 0 gusting 2 23.3
2016-Aug-22 02:40 090 0 gusting 1 23.9
2016-Aug-22 02:35 090 0 gusting 1 23.9
2016-Aug-22 02:30 090 0 gusting 1 23.9
2016-Aug-22 02:25 090 0 gusting 1 23.9
2016-Aug-22 02:20 090 0 gusting 1 23.9
2016-Aug-22 02:15 084 0 gusting 2 23.9
2016-Aug-22 02:10 096 0 gusting 2 23.9
2016-Aug-22 02:05 045 0 gusting 1 23.9
2016-Aug-22 02:00 090 1 gusting 2 23.9
2016-Aug-22 01:55 132 0 gusting 2 23.9
2016-Aug-22 01:50 090 0 gusting 2 23.9
2016-Aug-22 01:45 090 23.9
2016-Aug-22 01:40 094 0 gusting 2 23.9
2016-Aug-22 01:35 090 0 gusting 2 23.9
2016-Aug-22 01:30 070 23.9
2016-Aug-22 01:25 096 0 gusting 2 23.9
2016-Aug-22 01:20 129 0 gusting 2 23.9
2016-Aug-22 01:15 156 0 gusting 2 23.9
2016-Aug-22 01:10 174 0 gusting 2 23.9
2016-Aug-22 01:05 090 0 gusting 4 23.9